Location: �clusier
(49.9361°N, 2.7869°E)
Time: 05:26:05
(UTC+00:00)

Cosmos 2016 Rocket - Pass Details

Date: 01 November 2021
Orbit: 947 x 1000 km, 83.0° (Epoch: 05 December)

Event Time Altitude Azimuth Distance (km) Brightness Sun altitude
Rises 19:00:04 0° 191° (S) 3,638 7.0 -25.2°
Reaches altitude 10° 19:02:34 10° 192° (SSW) 2,689 6.3 -25.6°
Maximum altitude 19:08:44 80° 280° (W) 973 4.0 -26.6°
Drops below altitude 10° 19:14:52 10° 8° (N) 2,684 6.3 -27.6°
Sets 19:17:22 0° 10° (N) 3,631 7.0 -28.0°
